Location: *
(48.5000°N, 4.3300°E)
Time: 08:42:49
(UTC+00:00)

Daily predictions for brighter satellites

Satellite Brightness Start Highest point End
(mag) Time Altitude Azimuth Time Altitude Azimuth Time Altitude Azimuth
SKYMED 2 4.5 18:21:41 10° N 18:25:57 55° WNW 18:30:11 10° SSW
Okean 2 Rocket 3.1 18:22:19 10° S 18:26:47 83° E 18:31:18 10° N
Okean 1 Rocket 4.1 18:23:25 10° SE 18:26:56 25° E 18:30:28 10° NNE
GP-B 3.4 18:24:32 10° NNE 18:28:49 44° E 18:33:04 10° SSE
ATLAS 2AS CENTAUR R/B 3.1 18:21:47 10° NW 18:29:34 62° NE 18:36:42 10° ESE
ADEOS Rocket 4.4 18:23:57 10° NE 18:29:37 24° E 18:35:31 10° SE
H-2A R/B 3.1 18:27:14 10° ESE 18:31:14 25° ENE 18:35:17 10° N
Cosmos 2237 Rocket 3.3 18:29:21 10° NNW 18:34:11 27° NE 18:39:00 10° ESE
Cosmos 2251 Rocket 3.6 18:29:03 10° NNW 18:34:28 79° ENE 18:39:51 10° SSE
Cosmos 1544 4.0 18:31:48 10° SSE 18:34:52 27° E 18:37:57 10° NNE
SAR-Lupe-2 4.2 18:34:45 10° NNE 18:38:05 35° E 18:41:23 10° SSE
Cosmos 1441 Rocket 4.0 18:34:48 10° SSE 18:38:06 28° E 18:41:24 10° NNE
GEOS 3 Rocket 4.0 18:35:14 10° SSE 18:40:19 65° SW 18:45:25 10° NW
Aureole 1 Rocket 3.4 18:37:51 10° NNW 18:43:39 70° ENE 18:47:58 10° SSE
MOS 1 4.3 18:39:53 10° SSE 18:45:32 71° ENE 18:51:14 10° NNW
Timation 2 Rocket 4.1 18:39:41 10° S 18:46:08 58° ESE 18:52:21 10° NE
SJ-6B 3.4 18:43:55 10° SE 18:47:47 41° ENE 18:51:40 10° N
Nadezhda 1 Rocket 4.1 18:42:33 10° SSE 18:48:25 53° E 18:54:18 10° NNE
Cosmos 1536 Rocket 3.7 18:45:10 10° NNW 18:49:31 80° W 18:53:50 10° S
Cosmos 1939 Rocket 3.2 18:46:22 10° S 18:50:13 65° W 18:54:04 10° NNW
Cosmos 1025 Rocket 3.1 18:52:00 10° NNW 18:56:18 80° W 19:00:33 10° S
Cosmos 1707 3.3 18:53:03 10° N 18:56:45 38° ENE 19:00:08 12° SE
ASTEX 1 3.5 18:53:19 10° NNE 18:58:05 50° E 19:02:49 10° SSE
CZ-2C R/B 3.8 18:53:47 10° NNE 18:58:09 48° E 19:02:26 10° S
Meteor 2-15 Rocket 4.4 18:54:29 10° S 19:00:34 67° E 19:06:41 10° NNE
Cosmos 2333 4.5 18:56:29 10° NNW 19:02:09 72° WSW 19:07:48 10° SSE
Meteor 2-15 4.4 18:56:02 10° S 19:02:11 83° E 19:08:23 10° NNE
SL-16 R/B 3.8 18:58:05 10° N 19:02:18 21° NE 19:05:35 13° E
Cosmos 389 Rocket 3.5 19:00:07 10° N 19:03:06 27° ENE 19:04:26 21° ESE
NOSS 0 Rocket 4.1 18:58:48 10° NNW 19:04:57 59° NE 19:10:04 15° SE
Cosmos 1378 4.4 19:01:59 10° NNW 19:05:35 44° W 19:09:10 10° SSW
CZ-2C R/B 3.9 19:04:05 17° ESE 19:07:24 32° ENE 19:12:13 10° N
Meteor 1-12 Rocket 4.2 19:02:09 10° S 19:07:53 81° E 19:13:35 10° NNE
COSMOS 2428 2.7 19:04:30 10° NNW 19:10:14 86° WSW 19:15:55 10° SSE
Meteor 1-4 Rocket 3.5 19:10:28 10° N 19:13:37 27° ENE 19:14:26 25° E
ERBS 4.3 19:11:28 10° NW 19:14:07 21° N 19:16:14 13° NE
Cosmos 2219 Rocket 2.2 19:09:05 10° NNW 19:14:42 83° WSW 19:20:18 10° SSE
Cosmos 2341 Rocket 4.1 19:11:49 10° N 19:18:01 58° ENE 19:23:52 11° SSE
Ariane Rocket 4.4 19:16:26 10° SSW 19:21:09 39° W 19:25:55 10° NNW
Cosmos 2181 Rocket 4.4 19:18:10 10° SSE 19:23:55 41° E 19:29:47 10° NNE
Cosmos 2360 Rocket 4.3 19:20:19 10° NW 19:24:53 26° WSW 19:29:26 10° SSW
Cosmos 2056 Rocket 4.3 19:21:28 10° SSE 19:26:10 31° E 19:30:52 10° NE
FREGAT/IRIS 4.3 19:25:58 10° SSW 19:28:30 31° W 19:31:04 10° NNW
Cosmos 407 Rocket 3.5 19:27:28 10° NNW 19:32:35 61° ENE 19:35:14 28° SE
CZ-4C R/B 4.4 19:28:10 10° WNW 19:32:48 23° NNW 19:38:06 10° NE
SL-08 RB Rocket 3.8 19:31:35 25° SE 19:34:07 58° ENE 19:38:43 10° N
CZ-2C R/B 4.1 19:30:09 10° NE 19:33:16 19° ENE 19:33:16 19° ENE
Cosmos 2219 3.4 19:30:48 10° S 19:36:16 47° ESE 19:41:45 10° NE
NOSS 3-4 (A) 3.8 19:29:56 10° NW 19:36:55 89° SW 19:42:03 23° SE
NOSS 3-4 (C) 3.8 19:30:02 10° NW 19:37:01 89° SW 19:42:08 23° SE
SPOT 3 Rocket 3.8 19:33:15 10° S 19:38:23 70° WSW 19:43:33 10° NNW
Cosmos 1624 Rocket 4.4 19:33:52 10° S 19:38:39 38° ESE 19:43:26 10° NE
Cosmos 2227 Rocket 2.9 19:38:54 30° ESE 19:39:13 30° ESE 19:44:04 10° NE
Cosmos 1461 2.9 19:36:20 10° SW 19:40:20 74° NW 19:44:20 10° NE
Cosmos 2218 Rocket 4.2 19:34:54 10° N 19:41:10 53° ENE 19:44:33 27° SE
Cosmos 1437 Rocket 3.7 19:37:46 10° N 19:40:57 29° ENE 19:40:57 29° ENE
Cosmos 614 Rocket 4.0 19:36:07 10° NNW 19:41:21 69° ENE 19:43:50 31° SE
Cosmos 2154 Rocket 4.5 19:36:21 10° NNW 19:42:27 61° W 19:48:32 10° S
Cosmos 1544 Rocket 4.2 19:44:31 35° E 19:44:31 35° E 19:48:29 10° NNE
Cosmos 1455 Rocket 3.4 19:44:42 40° ESE 19:45:22 43° E 19:49:36 10° NNE
SL-8 R/B 3.6 19:42:46 10° WSW 19:47:33 73° SSE 19:49:22 38° E
Cosmos 2366 rocket 4.1 19:42:43 10° N 19:48:58 56° ENE 19:52:02 30° SE
Cosmos 2297 Rocket 2.6 19:48:53 32° SE 19:50:25 38° ESE 19:55:36 10° NE
Cosmos 1954 Rocket 4.3 19:47:43 10° NNW 19:52:49 48° ENE 19:54:07 39° ESE
Cosmos 405 Rocket 2.5 19:54:00 61° E 19:54:00 61° E 19:57:31 10° NNE
ARGOS 3.3 19:49:52 16° S 19:54:11 74° WSW 19:59:36 10° NNW
USA 186 4.0 19:52:24 10° SSW 19:55:17 27° W 19:58:16 10° NW
MetOp-B 4.5 19:54:34 38° ESE 19:55:58 47° ENE 20:01:06 10° N
Meteor 1-24 Rocket 4.0 19:50:39 10° N 19:56:11 49° ENE 19:57:50 39° ESE
Resurs 01 Rocket 1.5 19:55:58 42° SSE 19:57:26 81° ENE 20:01:54 10° NNW
Resurs 1-3 3.6 19:55:47 31° S 19:57:50 79° WSW 20:02:16 10° NNW
Spot 2 Rocket 3.7 19:57:18 43° ESE 19:58:28 52° ENE 20:03:22 10° N
USA 234 4.1 19:54:50 15° ENE 19:59:52 43° N 20:05:58 10° WNW
ERS-1 Rocket 4.1 20:00:25 26° ENE 20:00:33 26° ENE 20:04:42 10° N
SL-8 Rocket 3.9 19:54:50 10° N 20:01:06 83° E 20:04:44 26° SSE
Cosmos 2333 Rocket 3.5 19:58:13 10° NW 20:03:22 36° WSW 20:08:27 10° S
Cosmos 1626 Rocket 4.1 19:59:26 10° N 20:03:10 40° ENE 20:03:10 40° ENE
Cosmos 1140 Rocket 3.4 20:00:14 10° NNW 20:05:27 77° ENE 20:06:49 49° SE
Meteor 2-5 Rocket 3.7 20:00:29 10° N 20:06:18 78° ENE 20:08:43 38° SSE
Cosmos 1371 Rocket 3.9 20:03:24 10° SSW 20:08:41 78° ESE 20:14:03 10° NNE
H-2A R/B 2.7 20:06:40 16° S 20:10:23 49° W 20:15:16 10° NNW
SL-24 R/B 4.3 20:10:06 45° S 20:11:28 78° WSW 20:16:18 10° NNW
GENESIS II 4.4 20:09:14 10° NW 20:13:13 61° NE 20:13:13 61° NE
ADEOS Rocket 3.5 20:08:33 10° NNE 20:15:43 83° WNW 20:23:25 10° SSW
Cosmos 1959 Rocket 4.4 20:10:11 10° N 20:16:20 89° E 20:19:02 36° S
Terra 3.5 20:18:42 20° NE 20:18:42 20° NE 20:21:26 10° NNE
Cosmos 2237 Rocket 2.4 20:13:04 10° NNW 20:18:44 66° WSW 20:20:51 38° S
ATLAS 2AS CENTAUR R/B 3.8 20:13:18 10° NW 20:20:17 40° WSW 20:24:53 19° S
MetOp-A 4.4 20:18:47 32° S 20:21:14 66° WSW 20:26:36 10° NNW
Cosmos 1602 Rocket 4.1 20:18:42 10° N 20:22:09 44° NE 20:22:09 44° NE
Cosmos 676 Rocket 3.9 20:17:45 10° NNW 20:23:04 86° ENE 20:23:53 65° SSE
Cosmos 1980 4.2 20:21:48 10° NW 20:27:18 53° WSW 20:29:21 35° SSW
Meteor 1-22 Rocket 4.3 20:27:37 54° SSE 20:28:49 67° E 20:34:55 10° NNE
Cosmos 1674 3.5 20:29:04 10° NNW 20:31:52 48° NNW 20:31:52 48° NNW
CZ-2C R/B 4.1 20:45:09 30° SW 20:47:08 42° W 20:52:17 10° NNW
SL-16 R/B 2.0 20:41:33 10° NNW 20:47:16 86° ENE 20:47:27 83° ESE
Cosmos 1850 Rocket 4.3 20:49:39 10° NNW 20:54:06 58° NNE 20:54:06 58° NNE
Cosmos 2082 4.3 21:05:13 46° NE 21:05:13 46° NE 21:09:11 10° NNE
Cosmos 1934 Rocket 4.3 21:01:10 10° N 21:06:21 51° NE 21:06:21 51° NE
SPOT 1/Viking Rocket 3.8 21:09:51 64° NNW 21:09:51 64° NNW 21:14:14 10° NNW
SPOT 5 3.7 21:11:43 44° N 21:11:43 44° N 21:15:08 10° NNW
CZ-2C R/B 2.9 21:09:25 10° N 21:14:46 71° WNW 21:14:46 71° WNW
RESURS DK-1 4.3 21:11:12 10° NNW 21:13:13 27° NNW 21:13:13 27° NNW
BREEZE-M DEB (TANK) 4.3 21:16:55 10° WNW 21:22:13 79° SSW 21:24:37 57° SE
Meteor 2-12 Rocket 4.5 21:16:07 10° NNW 21:21:48 76° NW 21:21:48 76° NW
Cosmos 2227 Rocket 2.9 21:20:30 30° WSW 21:23:01 51° NW 21:28:35 10° NNE
CZ-4C R/B 4.4 21:18:24 10° NW 21:23:37 25° NNE 21:27:43 16° ENE
Nadezhda 3 Rocket 4.0 21:25:13 74° NNW 21:25:13 74° NNW 21:30:58 10° N
Cosmos 2297 Rocket 3.3 21:30:18 16° WSW 21:34:25 42° NW 21:39:48 10° NNE
Resurs 01 Rocket 4.3 21:33:32 12° W 21:34:30 12° W 21:36:22 10° WNW
ERS-1 Rocket 4.2 21:40:25 39° WNW 21:40:25 39° WNW 21:43:59 10° NNW
USA 234 3.4 21:42:11 63° NNE 21:42:19 63° NNE 21:48:46 10° NW
Cosmos 1821 Rocket 4.5 21:38:07 10° NNW 21:43:45 54° WNW 21:43:45 54° WNW
Cosmos 1943 4.2 21:47:08 10° NNW 21:51:01 43° N 21:51:01 43° N
Terra 3.6 21:57:36 29° NNW 21:57:36 29° NNW 22:00:01 10° NNW
SL-16 R/B 4.5 22:27:10 10° WNW 22:29:20 15° W 22:29:20 15° W
Mayak 2.0 23:04:58 10° N 23:05:03 10° N 23:05:03 10° N
CZ-4C R/B 3.5 23:07:04 10° NW 23:12:51 48° NNE 23:12:51 48° NNE
Cosmos 2263 Rocket 4.0 23:39:46 27° N 23:39:46 27° N 23:42:41 10° NNE
